Theta_e
345 342 347 348 348 348 348 349 348 346 345 344 343 342 342 342 341 340 339 340 340 341 342 344 345 347 347 346 345 345 345 345 346 345 343 343 345 344 342 341 340 341 340 340 341 342 343 341 341 343 342 343 344 345 345 345 347 347 346 346 347 347 348 348 346 346 346 346 346 346 346 346 346 345 345 345 346 346 344 343 341 338 341 343 344
344 346 347 350 348 349 348 348 348 347 345 344 343 342 341 341 340 340 339 338 338 341 344 343 344 345 346 344 343 343 343 344 344 344 342 342 342 342 341 340 338 340 341 339 341 341 341 342 343 343 343 343 343 344 344 345 346 345 345 346 346 346 346 346 346 346 346 345 345 345 344 345 345 345 345 345 345 345 343 344 343 340 340 343 344
347 345 347 349 349 349 348 348 348 347 346 345 343 342 340 339 339 339 339 339 339 341 343 342 342 344 345 345 342 341 341 342 343 343 341 341 341 341 340 339 338 339 339 340 339 341 340 340 339 340 342 342 342 342 343 345 344 344 345 345 345 345 345 345 345 346 345 345 345 344 344 344 344 344 345 345 345 344 343 342 342 341 340 343 342
344 346 346 349 347 349 348 347 346 345 345 344 344 343 342 340 340 339 338 337 343 345 344 344 345 345 344 343 340 341 342 342 342 341 339 339 342 342 341 338 338 337 339 341 341 340 340 340 339 338 339 340 340 341 343 343 343 344 344 344 344 344 344 344 344 344 345 346 344 341 341 340 341 343 344 345 345 343 342 341 342 342 342 342 342
345 346 346 349 348 348 348 347 346 345 344 344 344 343 343 342 340 339 338 338 344 344 345 346 345 345 344 342 341 340 339 338 338 338 338 338 343 343 341 341 341 339 337 337 339 340 340 339 339 338 337 337 338 339 340 341 342 343 343 343 343 343 343 343 344 345 343 344 342 340 339 340 340 340 344 344 344 341 340 340 341 342 340 341 342
345 346 345 346 348 348 347 347 347 346 345 344 344 343 343 341 340 339 339 338 339 340 344 345 345 346 345 342 341 340 339 339 338 338 338 339 343 343 340 341 342 342 342 340 338 339 338 339 338 338 338 338 338 338 339 340 341 342 342 342 342 342 342 342 342 344 341 341 340 339 338 339 340 339 341 344 343 340 341 340 340 341 341 340 340
344 344 345 346 347 348 346 347 347 347 345 344 344 343 343 342 340 340 340 340 340 341 346 346 346 346 345 342 341 340 339 337 337 337 338 339 341 342 341 341 342 342 342 341 339 340 340 340 340 339 340 338 339 339 339 339 340 340 340 342 342 342 342 342 342 342 340 339 338 338 339 339 339 338 341 343 341 340 342 342 340 342 341 340 341
344 345 346 346 347 347 346 348 347 345 345 344 344 343 343 341 340 340 339 339 340 342 343 344 345 346 345 343 341 340 339 338 337 338 341 344 343 342 342 342 342 342 342 341 339 340 340 340 340 339 340 339 339 339 339 339 340 340 340 341 341 341 340 340 342 340 340 337 338 337 337 338 338 337 339 342 340 342 342 341 341 340 340 339 337
342 344 345 346 348 345 346 346 346 346 345 344 344 343 343 343 342 341 339 339 339 343 345 346 346 345 344 342 341 339 338 338 337 335 336 342 342 340 339 339 339 339 339 338 338 338 339 338 338 337 339 338 338 339 339 340 339 339 341 341 340 340 340 342 339 337 337 338 337 336 336 336 336 336 340 342 341 341 339 339 339 339 339 336 336
341 344 345 347 349 343 346 346 347 347 346 345 344 343 343 343 342 341 340 340 339 339 344 344 344 345 343 341 340 339 338 338 336 337 337 337 338 338 339 339 339 339 340 339 338 338 337 337 338 337 339 338 338 338 339 339 339 340 340 340 340 339 339 340 338 336 336 337 336 335 337 338 335 335 339 339 340 339 337 335 336 336 335 335 336
341 342 345 347 350 343 347 347 348 347 346 345 345 344 344 344 343 342 341 340 339 339 344 344 345 344 343 341 340 339 338 337 337 337 337 338 338 338 338 340 340 340 339 340 340 340 340 339 339 339 339 339 338 338 339 339 339 339 339 339 339 339 339 339 335 335 335 334 335 335 336 338 335 335 337 339 338 337 336 336 336 336 335 336 336
340 342 346 348 347 342 346 346 347 347 346 345 345 345 344 343 343 342 342 341 341 340 344 344 343 343 343 341 339 338 337 337 336 336 336 336 338 339 339 339 338 337 337 337 339 340 340 340 339 339 338 338 337 338 338 338 338 339 339 339 338 338 338 335 334 335 335 335 335 335 334 334 333 334 336 337 338 336 335 335 335 335 335 334 334
340 340 346 349 349 341 345 346 346 347 346 345 345 344 344 344 343 343 342 342 341 341 340 340 341 342 342 341 339 337 336 335 335 335 335 335 336 336 337 337 337 336 337 337 336 337 337 338 338 338 338 337 337 337 338 338 338 338 338 338 337 338 335 333 333 335 335 335 334 334 334 334 333 335 335 336 336 336 335 334 333 334 333 332 332
340 341 346 347 347 346 341 343 344 346 347 346 345 344 344 344 344 343 342 342 341 340 340 339 340 341 342 341 339 337 336 335 335 335 335 335 335 335 335 336 337 336 336 337 336 336 336 337 337 338 337 337 337 337 337 337 337 337 336 336 336 337 333 333 334 334 335 334 334 334 332 332 333 335 335 335 335 334 332 332 334 332 331 331 331
339 343 346 346 347 347 342 340 343 343 345 346 345 344 344 344 344 343 342 342 341 341 340 339 340 339 339 338 337 335 335 334 334 335 334 334 335 335 336 336 336 336 337 337 336 336 336 336 337 337 337 337 337 337 337 336 336 336 335 335 335 334 330 334 334 334 334 334 333 332 332 331 333 333 333 334 332 331 331 331 331 330 330 330 329
343 342 344 346 346 349 347 343 338 339 342 344 344 344 345 344 343 343 343 342 342 342 341 340 339 339 338 337 336 335 335 335 335 337 337 336 335 335 336 336 336 336 337 336 337 337 336 336 336 336 336 336 337 336 336 336 335 335 334 334 333 332 329 328 334 334 333 332 331 331 330 331 332 332 332 332 331 330 330 330 330 330 328 328 327
343 344 343 345 347 346 346 347 342 334 335 338 340 341 343 345 344 343 343 342 342 342 341 340 339 339 337 336 338 337 338 335 336 338 340 336 338 338 338 336 336 336 337 337 336 336 336 335 335 336 336 336 336 336 336 335 334 334 333 333 332 330 329 325 333 331 330 331 331 330 329 329 331 331 330 330 330 330 329 329 329 328 328 327 326
344 343 342 344 345 346 346 347 347 347 347 339 333 338 342 344 344 343 344 343 343 341 341 340 340 342 341 339 339 339 336 335 336 337 339 338 337 338 340 337 337 337 337 336 335 335 334 334 335 336 336 336 335 335 335 335 334 332 332 331 331 329 328 326 331 331 329 330 328 329 328 331 330 330 330 329 329 328 328 327 327 326 326 325 325
341 340 340 342 343 345 345 346 346 346 347 346 346 344 335 340 341 341 342 342 342 341 341 339 339 339 338 336 335 334 333 333 334 334 335 335 333 332 337 339 337 336 336 335 334 334 333 334 334 335 335 335 335 335 334 333 332 331 331 329 327 327 323 329 330 330 330 328 328 326 326 331 328 329 328 327 328 327 327 327 326 325 326 325 325
339 340 338 342 343 344 344 345 346 345 345 346 346 345 336 333 338 338 339 340 340 338 337 336 333 333 332 331 330 332 330 333 325 333 329 334 330 332 333 336 336 335 334 334 333 333 333 333 333 334 334 334 334 333 332 331 331 330 329 328 327 322 337 331 329 329 329 327 326 325 328 332 327 328 328 327 327 326 326 326 325 325 325 324 323
337 338 337 339 342 343 344 345 345 345 346 346 347 345 345 332 333 332 333 336 336 335 333 326 324 323 327 325 328 335 334 333 336 334 327 335 325 326 333 337 335 334 334 333 333 332 333 332 332 333 332 331 328 327 328 329 329 329 327 327 322 334 332 331 330 329 329 327 326 327 330 332 328 328 328 326 326 326 326 325 325 324 324 324 324
335 335 337 338 339 342 343 344 344 344 345 344 345 345 346 339 344 343 343 338 331 329 335 339 336 338 327 333 336 335 335 333 333 334 334 334 332 325 330 334 335 334 334 332 331 331 331 332 331 330 331 329 325 332 328 323 324 326 325 321 330 332 332 331 330 330 329 328 326 327 331 327 328 328 327 326 325 324 325 324 324 323 323 322 322
332 334 335 336 339 340 341 342 343 344 345 345 345 344 344 343 344 343 342 334 338 340 339 338 337 337 336 334 333 333 336 336 336 334 334 325 331 325 329 330 332 331 334 333 331 330 331 331 329 328 328 327 332 331 330 331 330 319 320 329 332 330 331 330 331 331 331 329 327 328 331 328 328 328 327 326 324 325 324 323 323 323 322 321 320
332 334 335 336 337 339 340 342 343 344 343 343 344 344 345 344 343 344 342 340 341 339 339 338 337 337 338 337 334 333 334 336 329 328 333 334 331 323 324 326 328 327 328 330 329 330 329 327 326 324 326 328 329 328 328 329 329 330 330 329 329 330 330 330 330 331 330 329 329 327 330 329 327 326 326 325 325 323 323 323 323 321 320 321 320
334 335 335 335 336 337 339 341 343 343 344 342 342 342 343 343 343 343 343 341 340 339 337 337 337 337 337 336 336 335 333 335 333 332 334 333 333 332 332 332 332 332 325 332 331 331 329 330 328 325 329 329 329 329 328 328 328 329 329 328 329 330 330 331 331 331 330 329 329 323 327 329 327 326 326 324 324 323 322 323 322 321 320 319 319
335 334 334 336 336 337 338 339 341 342 343 342 342 342 342 341 342 342 342 342 341 339 338 336 336 337 336 335 335 335 331 332 330 330 332 333 333 331 331 332 332 332 330 330 330 329 329 329 328 327 328 329 329 329 329 327 327 328 328 330 329 329 329 330 331 331 330 329 327 322 327 330 327 326 326 324 324 323 322 322 321 321 320 319 318
334 334 335 336 337 337 338 339 339 340 340 342 341 342 341 342 341 342 341 340 341 339 337 336 335 335 336 335 333 333 331 330 331 333 332 334 333 332 332 332 332 331 330 330 330 330 329 328 327 328 328 328 328 328 328 328 328 327 328 328 328 328 328 328 330 330 330 329 323 319 325 329 327 326 326 324 324 322 322 321 321 321 320 319 318
335 335 335 336 337 337 339 339 339 340 340 341 340 341 341 341 341 341 341 338 339 339 338 337 337 334 335 334 332 334 332 330 331 332 332 333 332 333 333 332 332 330 331 331 330 329 328 327 328 328 327 327 327 327 327 328 328 328 328 328 328 327 327 327 328 330 329 329 328 322 321 325 327 329 325 325 324 323 321 321 321 322 321 319 319
334 335 335 335 337 338 338 338 338 338 340 340 340 341 341 340 341 341 340 337 340 340 339 338 336 335 335 335 333 332 332 332 331 330 331 331 332 333 332 332 332 331 331 330 330 329 327 326 326 326 327 326 326 327 327 327 328 327 326 327 327 327 327 328 328 329 329 328 328 324 321 324 327 328 326 325 324 323 323 322 322 322 322 320 320
335 336 336 336 336 338 338 338 339 339 339 340 340 340 341 340 340 340 340 340 340 340 340 338 337 336 334 335 334 333 333 332 332 332 330 330 331 332 331 331 330 331 330 329 329 328 326 325 326 326 326 326 326 326 326 326 326 327 326 326 326 326 327 327 327 327 328 328 327 326 318 320 324 328 328 325 326 324 324 322 322 321 321 322 321
335 334 336 336 337 336 338 339 339 339 340 339 341 340 340 340 340 340 341 340 340 340 340 339 338 337 335 335 334 334 333 333 332 332 331 330 331 331 330 330 330 330 329 328 329 328 326 325 325 325 325 325 325 325 325 324 326 326 326 326 326 326 326 327 326 327 327 327 327 327 323 317 321 323 326 327 325 324 324 324 322 322 321 322 320
333 334 335 337 336 336 336 337 339 340 340 339 340 340 340 340 341 340 340 341 341 339 339 339 336 337 337 336 335 334 333 333 333 332 332 331 330 330 330 330 330 329 328 328 328 327 326 326 326 326 326 326 325 325 325 323 323 325 326 326 326 325 325 326 326 326 326 326 326 326 324 323 317 319 321 327 325 324 325 324 323 322 322 322 322
334 335 336 337 336 336 336 336 337 339 339 338 339 339 340 340 340 340 340 341 340 339 338 338 339 337 337 337 335 334 334 333 333 333 332 331 330 330 329 330 330 329 328 328 328 327 325 324 324 325 324 324 323 323 324 323 322 323 325 325 325 324 324 324 324 324 325 325 325 325 325 324 322 316 317 319 326 326 325 325 324 323 323 323 323
333 334 336 336 337 338 337 337 336 337 338 338 338 339 338 339 340 340 340 340 340 340 339 339 339 338 337 336 336 335 333 333 333 333 332 331 330 330 329 329 330 329 328 327 326 325 323 323 322 322 320 321 321 321 321 321 321 322 323 323 324 324 324 323 323 323 324 324 324 324 324 324 322 322 321 318 319 322 326 326 325 325 323 323 323
333 334 334 336 336 337 337 335 336 337 337 338 338 337 337 337 337 338 339 340 340 339 339 339 339 339 337 336 335 334 334 334 333 332 332 331 330 329 329 329 330 329 325 325 324 324 323 322 322 321 321 320 320 321 321 321 321 321 321 322 321 322 322 321 322 321 320 321 322 323 322 322 323 322 322 321 314 314 320 325 327 326 324 323 323
332 334 335 336 336 336 337 336 336 336 337 336 337 338 337 336 336 332 338 340 339 339 339 339 338 339 338 336 335 334 334 333 333 332 331 331 331 330 330 330 331 328 325 323 323 322 323 323 322 321 319 320 320 320 321 320 320 321 321 321 320 319 318 318 317 316 318 318 318 318 317 317 319 321 319 321 320 317 315 318 323 325 324 323 323
333 334 335 335 335 335 335 336 336 336 336 336 336 336 336 334 333 336 336 337 338 338 338 339 339 338 338 337 335 334 334 334 334 333 332 332 331 330 330 330 329 326 323 322 321 322 322 322 321 321 321 320 320 319 320 319 319 319 320 318 317 314 314 315 315 316 316 313 314 314 314 315 316 311 317 319 321 321 315 315 318 321 322 324 323
334 334 335 335 334 335 336 335 336 337 336 336 335 335 334 334 335 334 334 336 337 338 337 338 337 338 339 338 337 335 334 335 335 335 334 333 332 331 330 330 329 328 326 324 322 322 322 322 320 321 320 319 319 319 318 319 319 317 314 312 312 310 311 312 313 311 310 311 312 312 312 313 313 314 315 316 317 318 319 316 314 315 314 318 323
331 332 333 334 335 334 335 335 335 336 336 336 336 336 335 335 335 335 335 334 333 335 336 336 336 337 337 338 338 336 333 334 335 335 333 332 332 331 331 331 330 329 327 326 322 321 321 320 319 319 320 319 319 320 319 318 315 312 311 310 308 308 309 308 307 307 307 308 308 309 311 311 311 311 312 313 314 314 315 317 316 315 315 314 321
327 329 329 332 333 333 333 334 334 334 335 335 335 333 333 332 331 333 333 333 334 332 334 334 335 335 337 338 338 337 336 333 334 335 335 333 332 332 331 331 330 329 327 325 321 319 318 318 318 319 319 319 319 318 316 313 311 309 308 307 307 307 306 306 305 306 305 305 305 306 307 309 309 310 310 310 310 311 311 312 314 316 315 315 315
326 326 327 329 330 331 332 331 333 333 332 332 333 332 330 330 331 330 329 331 332 334 333 334 334 335 336 338 337 337 337 335 333 334 334 330 332 331 331 329 329 328 326 325 324 323 320 319 318 318 318 316 314 315 314 312 310 308 308 306 307 306 305 305 304 304 304 304 304 305 305 305 306 306 307 308 307 307 308 309 311 313 316 316 315
322 324 324 326 328 329 330 331 332 331 330 331 331 331 331 330 330 330 330 330 330 329 329 330 333 337 338 338 338 338 337 337 335 334 333 333 331 330 331 331 331 328 327 327 327 321 320 318 318 316 316 314 314 315 313 310 308 307 308 308 308 309 307 305 304 304 304 304 304 304 304 304 304 305 306 306 306 306 306 307 308 310 311 314 316
317 321 323 324 326 327 329 330 330 331 330 330 331 330 331 332 331 331 331 330 331 332 332 332 333 333 335 337 338 338 337 337 336 333 332 332 331 330 330 331 331 328 326 325 324 321 318 316 316 315 313 313 313 316 311 311 309 309 308 304 304 306 309 305 306 306 305 305 304 303 304 304 304 305 305 305 305 305 306 306 306 308 309 310 311
311 314 318 322 324 325 326 328 328 330 330 330 329 331 331 332 332 332 332 331 329 330 330 332 333 334 333 334 334 334 333 334 336 335 333 332 332 330 329 328 327 325 324 322 321 319 319 317 315 315 315 312 311 311 311 310 310 308 304 303 303 301 301 306 309 309 307 306 305 305 305 304 305 305 305 304 305 306 306 306 306 306 307 307 308
310 311 314 317 320 323 325 326 327 328 329 329 329 330 330 329 329 329 330 329 329 328 327 326 327 327 330 332 334 336 335 333 335 336 333 332 332 331 330 330 328 327 324 322 321 321 321 320 316 314 314 313 311 310 308 308 308 311 310 303 301 299 301 306 307 309 310 306 306 306 306 305 305 304 304 304 305 306 305 306 306 306 305 305 305
310 311 313 314 317 320 323 325 325 326 327 328 328 328 327 326 325 323 322 322 322 322 322 322 324 325 325 328 329 332 335 335 335 335 335 333 334 333 331 329 327 326 324 322 323 323 322 320 317 316 316 314 313 311 309 306 307 308 310 312 312 309 308 306 305 304 309 310 309 307 306 306 306 305 304 304 305 305 304 304 306 306 305 304 304
309 311 312 312 313 316 319 322 323 324 326 326 327 326 325 325 324 323 323 322 321 323 325 325 325 326 327 327 327 329 330 331 333 334 334 335 333 331 329 328 327 326 322 323 321 322 323 321 319 316 315 315 313 310 310 308 305 306 308 309 309 309 308 306 304 306 303 306 306 307 307 307 306 305 305 305 305 305 305 304 304 306 305 304 304
311 311 311 312 313 314 318 320 321 322 324 325 325 325 323 324 323 323 322 322 322 323 325 324 325 325 325 326 327 327 328 329 329 330 331 333 332 332 330 329 328 328 326 324 323 323 324 324 320 317 315 314 313 311 310 311 304 305 305 305 306 307 309 307 306 304 303 300 303 307 306 306 307 305 305 305 305 304 304 304 304 304 304 303 303
311 310 311 311 313 315 317 318 319 321 323 324 324 324 323 324 323 322 321 322 323 324 324 325 324 324 324 324 325 326 326 327 328 328 329 329 328 328 329 329 329 329 329 327 325 324 322 321 319 316 314 314 312 312 311 312 309 308 305 304 304 305 305 306 306 305 300 298 299 301 303 307 304 305 305 305 305 305 304 304 304 304 303 303 303
312 314 314 314 315 316 316 317 319 320 322 322 323 323 323 323 322 322 321 321 322 322 323 322 322 323 321 322 323 323 324 324 325 326 326 327 327 327 327 327 326 327 324 326 324 323 323 322 320 318 315 312 312 312 311 312 312 311 311 308 304 303 303 303 304 303 302 302 298 300 303 303 302 305 303 302 302 303 304 304 304 303 303 303 303
313 313 314 315 317 317 318 318 319 321 321 321 322 322 322 322 322 321 321 321 321 321 320 319 319 319 319 319 320 321 323 322 323 323 324 325 325 325 324 324 324 323 320 321 321 323 324 323 322 320 316 314 313 312 311 311 312 312 311 310 308 306 304 303 305 305 303 300 299 299 301 304 303 302 305 306 304 303 302 302 302 303 303 303 303
Wind_Speed
8 10 10 10 8 8 10 11 12 12 12 11 10 10 10 9 9 8 9 10 9 10 11 12 14 14 15 14 14 14 14 14 15 15 14 15 16 16 16 15 14 15 15 15 15 16 16 16 15 16 15 15 15 16 16 16 18 18 18 17 17 18 17 17 17 17 16 18 18 18 17 17 17 17 17 16 16 14 9 10 13 14 13 14 18
11 10 10 9 7 8 11 11 12 12 12 11 11 10 10 9 9 8 8 9 8 11 11 10 10 12 14 14 13 12 13 16 15 14 13 13 13 15 15 14 12 15 15 15 15 15 15 15 15 15 16 15 15 15 16 17 18 18 17 17 17 16 16 16 14 14 15 15 17 17 18 18 18 17 18 18 18 18 16 16 15 12 11 18 19
10 10 10 10 6 9 10 10 12 12 12 11 10 10 10 8 8 7 8 8 8 9 9 10 9 10 12 12 11 11 12 13 14 14 14 14 15 15 15 14 14 15 15 16 15 15 15 15 15 15 15 15 15 15 16 17 17 17 17 17 16 15 14 14 12 11 15 16 18 17 17 18 18 18 19 19 19 19 16 17 17 15 12 19 18
11 10 10 9 4 9 11 10 12 12 11 11 10 10 10 9 8 8 9 9 12 13 12 11 11 10 12 12 11 13 14 13 13 13 13 12 16 15 15 15 14 12 15 15 15 15 15 15 15 15 15 14 14 15 16 17 17 17 17 16 15 14 14 12 10 8 6 9 12 11 9 12 13 18 19 20 19 19 17 19 19 20 19 19 20
11 10 11 10 11 11 11 11 12 12 11 11 10 9 10 10 8 8 7 7 11 11 11 11 11 11 11 11 11 12 12 12 11 11 12 13 14 14 14 14 14 14 15 14 15 15 15 16 16 15 15 14 14 14 15 16 16 17 16 15 14 14 13 12 11 10 10 6 9 11 10 12 11 17 18 20 20 18 18 19 19 19 20 20 19
11 11 10 10 11 11 10 11 12 11 11 10 10 10 9 10 9 8 8 8 9 10 12 11 11 11 11 12 12 11 12 12 12 13 12 12 13 13 13 14 14 14 15 15 14 14 15 15 15 15 15 14 14 14 15 15 16 16 16 15 14 13 12 12 10 8 11 12 10 8 11 11 11 11 18 19 19 17 19 19 18 19 18 19 20
11 9 10 10 10 11 10 11 12 11 11 11 10 10 9 9 9 8 8 8 9 10 11 10 12 11 12 13 11 12 12 12 11 12 12 13 13 14 13 13 14 14 14 15 13 14 14 14 14 14 14 14 14 14 14 14 14 15 15 14 12 12 11 9 7 6 3 7 8 9 9 12 11 7 14 19 18 16 20 20 19 19 19 18 19
9 8 9 10 10 11 10 11 11 11 11 11 10 9 9 9 8 8 9 9 9 9 9 10 12 11 12 13 11 12 11 11 12 12 14 15 14 12 12 13 14 13 14 14 13 13 13 13 13 14 14 14 14 14 14 15 14 14 13 12 12 11 10 9 8 12 10 9 9 8 9 11 11 8 14 17 16 17 20 20 19 20 20 19 15
10 9 9 10 11 12 9 10 11 11 11 10 10 9 8 8 8 7 7 6 8 9 9 11 13 10 10 13 12 11 10 12 12 10 11 13 12 11 11 12 12 13 13 13 12 13 13 13 13 13 13 13 13 13 14 14 14 13 13 12 12 11 10 7 5 4 10 9 10 9 10 11 11 10 13 17 18 18 17 16 17 20 20 17 18
10 9 9 10 11 12 10 9 11 11 11 10 10 9 8 8 8 8 7 8 8 9 11 9 12 11 11 13 11 10 11 11 11 11 10 10 11 12 12 11 12 12 13 13 13 12 13 12 13 13 13 13 12 13 14 13 13 13 12 12 11 10 8 7 7 11 9 10 11 11 10 12 11 10 15 19 19 20 18 16 14 14 15 19 20
10 10 8 11 13 11 11 10 10 10 11 11 10 9 9 8 8 7 8 7 7 8 12 12 12 10 12 12 11 11 11 10 10 11 10 10 11 11 11 13 12 12 12 12 12 12 13 12 13 13 12 12 12 12 13 12 12 12 10 11 10 9 9 7 7 7 8 10 10 9 11 12 10 10 14 17 18 17 13 13 13 15 17 18 17
10 10 8 10 12 11 10 9 10 12 11 10 10 10 9 8 7 7 7 7 6 8 11 10 10 11 11 11 11 10 10 10 10 10 10 10 12 13 12 12 12 12 11 11 12 12 12 13 12 12 12 12 11 12 12 12 11 11 10 10 10 9 9 9 8 7 9 11 11 9 10 10 10 10 13 14 16 15 14 13 13 14 14 14 15
10 10 9 11 11 10 10 10 8 10 11 10 10 10 9 8 7 7 7 7 8 8 8 9 10 10 10 11 10 9 8 7 10 10 9 9 9 9 11 10 10 11 11 12 11 11 11 12 11 11 11 11 11 11 11 11 11 10 10 10 8 6 6 7 8 9 8 8 8 9 9 9 8 11 12 12 11 12 11 10 11 12 13 12 13
10 10 10 10 9 9 9 8 8 8 9 9 10 10 9 8 8 7 7 7 7 7 8 8 10 10 10 10 9 8 7 6 9 10 8 9 9 10 9 11 10 11 12 11 11 10 11 11 10 11 10 11 11 11 11 10 10 9 9 8 8 9 8 8 9 8 8 9 8 8 8 8 8 12 12 12 11 10 9 11 14 12 10 11 12
10 10 9 9 10 10 9 8 7 7 8 8 9 9 9 8 8 7 7 7 6 7 7 8 8 9 8 8 9 8 6 6 8 9 9 7 9 10 10 9 10 10 10 11 10 11 10 10 10 10 10 10 10 11 10 10 9 9 8 8 8 8 10 6 6 6 7 7 8 8 8 7 8 8 10 11 11 10 9 10 10 10 11 13 12
10 9 9 9 9 10 9 8 7 6 8 8 8 8 8 9 7 8 7 7 7 7 8 8 8 8 8 9 9 9 8 7 8 10 9 8 8 8 9 10 10 9 10 10 10 10 10 10 9 9 9 10 10 11 10 9 10 9 8 7 7 10 11 7 5 6 5 6 6 7 7 7 9 11 11 10 9 10 10 11 11 11 11 11 11
10 9 8 9 10 10 9 10 9 8 7 8 8 8 7 7 7 8 7 7 7 7 7 7 8 9 9 8 8 8 6 6 8 7 7 7 7 6 8 8 8 9 9 10 11 10 10 9 9 9 9 10 10 10 9 9 9 8 7 6 9 8 8 8 5 6 6 6 4 5 6 6 8 10 10 10 10 10 10 10 11 11 12 12 12
9 9 9 9 9 10 9 10 10 9 9 7 7 8 7 7 7 7 6 6 6 7 6 6 6 7 7 7 7 7 7 5 7 8 8 9 7 7 6 8 8 10 10 10 10 10 9 9 8 9 9 9 10 9 8 8 8 7 6 6 5 6 7 8 6 5 5 5 6 7 6 7 9 10 11 10 9 9 9 10 10 10 10 11 11
8 9 9 9 10 8 9 9 11 9 10 8 7 8 9 7 7 7 6 6 6 6 6 6 7 7 8 7 8 7 6 6 7 7 7 7 6 8 10 10 10 10 10 10 10 9 8 8 8 9 9 9 9 9 8 8 7 7 6 4 3 3 6 4 5 3 3 4 6 6 5 6 8 9 9 9 8 9 9 9 10 10 10 10 10
8 9 9 8 9 9 8 8 9 9 9 8 8 9 8 9 8 7 6 7 6 6 7 7 8 8 7 8 9 8 6 5 5 6 6 6 6 6 7 9 10 9 9 9 8 8 7 7 7 7 8 9 9 8 8 7 6 5 4 3 2 3 2 3 2 3 5 6 6 5 6 4 8 9 8 8 8 8 8 8 9 9 10 9 9
6 9 9 9 9 9 9 7 9 9 9 8 7 9 8 10 8 8 8 7 7 8 8 8 7 6 6 7 7 6 6 5 4 5 4 6 6 9 8 8 9 9 8 7 8 7 8 7 6 6 7 9 9 9 8 6 5 4 2 2 3 3 2 2 2 3 4 3 5 5 2 3 10 9 8 7 7 7 7 8 8 9 9 9 9
8 8 9 10 9 9 9 8 7 9 8 6 5 6 8 9 9 8 8 7 6 7 7 6 6 6 5 6 6 5 5 6 5 7 5 6 6 7 8 9 9 8 7 7 6 6 6 6 5 5 5 8 9 5 4 4 4 2 0 4 4 1 1 1 2 3 4 4 5 4 5 5 7 8 8 7 6 6 7 8 8 8 8 8 8
9 9 9 11 10 9 9 9 8 8 8 7 5 6 9 8 8 8 7 8 8 7 7 6 6 6 6 6 5 4 4 5 4 4 4 8 9 6 8 8 8 8 7 6 5 6 7 5 4 3 0 4 5 2 4 3 2 2 4 5 4 0 1 1 2 3 2 4 5 3 2 7 9 10 8 6 4 7 7 7 7 7 6 6 6
10 9 9 9 10 9 10 9 9 9 8 7 6 7 7 7 7 7 7 7 8 7 7 6 6 6 6 5 4 4 4 4 8 9 7 6 5 7 8 9 9 9 10 7 9 8 9 7 3 1 4 5 2 1 2 2 3 5 5 3 1 0 1 1 1 3 3 3 5 3 5 7 5 5 5 6 6 6 6 6 7 6 6 7 6
9 9 8 9 11 11 10 10 9 9 9 7 7 6 7 6 6 7 7 6 7 6 6 6 5 6 6 5 3 4 4 4 6 5 5 6 6 6 6 5 6 6 7 4 4 4 5 3 3 4 4 3 1 2 1 2 2 2 2 2 1 1 2 2 2 2 3 4 5 0 2 5 6 5 5 4 4 5 5 7 7 6 6 5 5
9 9 10 10 11 11 11 10 10 11 10 9 8 6 6 6 6 7 7 7 6 6 6 6 6 6 6 5 4 4 4 4 5 6 6 5 6 5 6 6 5 5 6 4 3 4 3 2 3 4 3 2 2 2 3 1 3 2 3 1 1 2 2 2 2 3 3 4 4 1 5 6 7 5 5 4 4 5 5 6 6 7 7 5 4
9 10 9 9 10 11 11 11 11 10 11 10 8 6 7 6 6 6 7 6 6 6 6 5 6 6 7 6 5 4 5 4 5 5 5 4 5 5 5 5 4 4 5 4 3 3 3 3 3 3 3 2 2 2 2 3 2 3 2 2 3 3 3 3 3 3 4 4 4 3 5 7 7 5 6 5 6 5 6 6 7 7 7 7 6
10 11 10 9 9 11 11 11 10 10 9 10 9 8 8 8 7 6 6 6 6 6 6 5 5 6 7 6 5 5 5 5 5 5 5 5 5 5 4 4 4 4 4 4 3 3 3 3 3 3 3 3 3 3 3 4 3 3 3 3 4 4 4 3 4 4 4 5 5 5 6 7 5 7 7 7 6 7 5 7 7 8 7 7 7
10 10 10 11 11 10 12 12 11 12 10 9 9 8 8 8 7 7 7 6 6 6 6 6 5 6 7 7 6 6 6 5 5 6 5 5 5 5 4 5 5 4 4 4 4 4 4 3 3 3 3 3 3 4 4 4 4 4 4 4 4 4 4 4 4 5 5 5 5 7 7 6 5 6 8 7 7 7 10 8 9 9 9 8 8
10 10 9 10 11 12 12 12 11 10 10 9 8 8 8 8 8 8 7 7 7 7 7 6 6 6 6 8 7 6 6 6 5 5 6 6 5 5 5 5 5 5 5 4 4 4 4 4 4 4 4 4 4 4 4 4 5 5 5 4 5 6 4 4 5 5 5 5 5 6 10 6 7 6 7 8 11 8 10 8 10 9 9 9 10
10 10 10 9 9 12 12 13 12 10 9 9 9 9 9 9 9 8 8 8 8 7 7 7 7 6 6 7 8 8 7 6 6 7 6 5 6 5 5 5 5 5 5 5 4 5 4 4 4 4 4 4 4 4 4 4 4 5 5 5 5 5 5 3 5 4 6 5 5 5 7 7 7 7 5 8 11 9 11 10 10 10 9 11 8
11 11 10 9 10 12 13 14 13 11 10 10 9 10 10 9 9 9 9 8 8 8 8 8 7 7 7 6 7 8 8 7 7 7 7 7 6 6 5 5 5 5 5 5 5 5 5 4 5 5 4 4 4 4 4 5 5 5 5 6 5 6 6 4 5 6 6 6 5 4 6 6 6 7 7 7 11 11 13 12 11 12 10 12 12
9 10 10 10 12 12 11 13 13 13 13 13 11 10 10 9 9 9 8 7 8 9 9 8 8 7 6 7 7 9 8 8 7 7 7 7 7 6 6 5 5 5 5 6 6 5 4 4 5 4 4 5 5 5 4 5 6 5 5 5 5 7 5 6 6 7 6 5 6 6 5 7 7 8 9 8 10 12 14 14 15 14 13 14 14
8 8 10 11 10 8 8 9 12 14 14 13 11 10 10 9 8 9 9 9 9 9 9 8 8 8 7 7 6 8 8 8 8 7 7 8 8 7 5 5 5 5 5 4 5 5 5 5 5 5 5 5 5 5 5 6 6 6 5 5 5 5 6 8 6 7 6 7 7 6 5 4 6 6 7 9 10 10 11 12 17 16 15 16 15
8 9 12 12 12 9 8 8 10 13 13 13 12 11 9 9 9 9 9 9 9 9 9 8 8 9 8 8 8 8 9 9 8 8 8 8 8 8 7 7 6 5 5 5 5 5 5 6 6 5 5 6 6 6 7 7 6 6 6 5 5 5 4 5 5 3 2 4 6 6 4 3 4 5 6 7 8 12 12 11 14 18 17 16 16
12 11 10 11 12 12 10 10 11 12 13 13 13 12 11 10 9 9 9 10 9 9 9 9 10 9 9 8 9 10 10 10 8 8 8 9 9 9 8 7 6 5 5 5 4 6 6 6 6 6 6 7 7 7 6 7 6 6 5 5 4 4 4 4 4 4 4 4 4 3 2 3 3 4 4 6 7 10 16 15 13 16 14 17 18
12 11 11 12 12 12 11 11 11 13 13 13 13 12 11 11 10 9 9 9 9 9 9 9 9 9 9 9 9 9 10 10 10 10 10 10 9 7 6 6 6 6 6 6 6 7 7 6 7 7 7 6 6 8 7 6 6 6 4 4 3 2 3 3 4 4 3 4 4 4 3 4 4 4 4 5 6 6 11 17 15 15 14 16 19
11 11 11 11 12 11 11 11 10 10 10 11 12 11 11 9 9 8 8 9 9 9 9 9 10 10 9 10 10 11 10 12 12 11 10 10 10 9 8 8 8 7 8 7 7 7 7 7 7 7 6 7 7 7 7 6 5 3 2 2 2 1 3 3 4 2 3 4 4 5 4 4 4 5 5 4 5 6 5 10 17 15 14 14 17
9 12 11 11 10 10 10 11 10 10 10 9 9 8 8 8 8 8 8 9 9 9 9 9 9 9 10 11 11 8 7 10 10 10 10 8 8 8 9 9 8 8 9 8 6 7 8 8 7 6 6 7 7 7 6 4 2 1 2 2 1 3 3 3 2 3 3 4 4 5 3 5 5 5 5 5 5 6 6 4 5 8 10 14 15
10 10 12 11 11 10 10 9 11 10 9 9 9 9 9 10 10 9 10 9 8 8 8 9 9 10 9 10 11 11 9 8 7 7 8 9 9 8 8 6 5 5 7 8 7 7 8 7 7 7 7 6 6 3 2 2 0 2 3 3 3 4 5 4 5 5 4 5 6 5 6 5 6 6 6 6 6 6 6 7 6 6 9 12 16
10 11 11 12 12 11 10 11 10 10 9 9 8 8 9 8 8 9 9 9 9 9 9 9 9 9 9 8 9 9 10 10 10 10 11 9 9 10 8 7 7 9 10 10 10 7 7 7 6 6 8 6 5 5 3 2 1 4 3 5 6 6 7 8 8 6 7 7 6 7 7 6 7 6 6 6 7 7 7 7 7 7 7 8 10
10 11 12 12 12 12 12 10 9 10 10 10 8 9 8 7 7 7 7 7 7 8 9 9 9 8 9 9 9 9 10 9 9 12 10 9 8 8 10 10 9 9 10 10 9 6 6 7 6 5 4 6 6 6 5 5 4 6 5 4 4 5 9 9 9 10 9 7 7 7 8 9 8 7 6 7 7 8 8 8 8 8 9 8 8
8 10 10 10 11 11 10 10 9 9 10 10 9 8 7 7 6 5 6 6 7 7 7 7 7 7 7 8 9 10 11 9 8 6 7 6 6 8 8 6 6 7 7 7 5 5 6 7 8 6 4 5 6 4 7 9 6 3 1 4 7 6 3 4 7 10 9 10 8 10 10 9 10 8 6 6 8 9 8 8 9 10 10 10 8
7 8 9 10 9 9 9 10 9 9 8 9 8 7 7 6 6 5 5 5 3 5 8 7 7 8 8 7 8 8 9 9 9 10 9 9 9 8 6 4 4 4 6 8 7 7 7 7 7 7 6 5 5 6 6 7 7 6 2 6 1 1 9 7 5 7 11 11 10 11 8 8 8 8 6 7 8 8 9 9 11 11 11 10 9
7 7 8 9 7 9 9 10 8 9 8 8 9 7 6 6 6 5 4 5 5 3 5 7 8 8 7 7 8 7 9 10 9 8 8 9 9 9 9 8 7 8 6 6 7 9 9 8 7 7 8 9 9 7 4 5 8 8 6 2 1 2 7 6 6 7 5 7 10 10 9 9 9 9 7 9 10 9 9 11 11 11 12 12 11
7 7 7 8 7 7 8 8 7 7 8 8 9 8 7 7 7 7 8 8 8 7 8 7 6 6 7 7 9 9 8 8 8 10 11 9 9 8 8 7 7 7 8 8 9 8 8 8 8 8 9 9 9 7 6 4 8 9 10 10 8 8 4 1 3 6 3 6 6 9 9 10 9 9 8 10 10 10 10 12 13 12 12 12 11
6 6 7 7 8 7 8 8 7 7 7 8 9 8 8 8 9 8 8 7 7 5 5 5 5 4 4 6 6 7 8 8 8 6 6 6 6 6 6 6 6 6 6 6 7 7 7 8 7 7 8 7 8 9 10 6 3 7 8 10 11 8 5 5 9 7 11 2 2 4 7 8 8 10 11 10 10 10 10 12 13 14 12 11 11
6 5 5 6 8 8 8 9 7 7 7 7 9 8 8 8 8 8 7 8 7 5 4 5 5 5 5 5 5 5 6 7 7 8 8 7 6 6 6 7 7 8 7 8 8 9 9 7 9 8 6 7 9 10 10 7 8 6 7 8 10 11 9 8 8 9 11 12 11 6 6 6 6 9 11 10 10 11 12 12 13 13 12 12 12
4 6 6 6 7 7 8 8 7 7 7 9 9 9 7 7 7 7 8 7 6 5 4 3 3 4 6 5 5 5 6 5 5 6 6 6 5 5 6 6 6 7 5 5 6 6 6 5 6 5 6 8 8 9 8 8 8 8 5 8 7 9 7 9 10 9 9 10 14 10 13 7 8 9 9 10 10 10 11 13 13 13 12 12 12
4 4 6 6 7 7 8 9 8 7 7 8 8 8 7 6 6 7 8 7 6 5 4 3 4 3 5 6 6 6 5 4 5 6 6 6 5 5 5 6 5 5 5 7 7 8 8 8 8 8 10 10 8 9 11 10 8 8 9 5 6 5 6 7 9 8 9 10 15 11 10 12 14 9 9 10 10 11 11 11 13 13 13 13 13
5 6 6 6 7 7 8 8 8 6 7 8 7 8 7 6 6 7 8 7 6 5 4 4 5 5 6 6 6 6 6 6 5 5 5 6 6 6 5 4 4 5 4 2 3 4 6 8 9 9 9 9 7 9 11 10 9 9 8 8 8 8 8 9 10 7 9 9 9 11 11 13 14 14 12 11 10 11 12 11 12 12 13 13 14
Wind_Direction
131 131 121 115 128 139 127 113 112 103 98 95 92 90 93 90 89 97 101 93 76 65 70 80 86 86 80 75 73 73 78 82 78 74 70 73 82 76 71 71 73 75 69 66 68 68 67 69 70 69 71 69 69 69 68 66 63 60 59 58 58 60 62 64 68 67 69 73 74 76 76 78 78 79 77 72 63 53 51 78 73 68 72 73 75
139 130 127 123 129 144 124 121 111 107 103 98 95 93 93 94 91 88 85 86 84 90 80 77 75 81 81 76 73 75 77 75 74 73 75 74 69 71 71 71 69 72 72 72 70 68 70 72 73 71 70 69 70 70 69 66 62 62 62 62 63 62 63 66 73 77 77 75 75 75 76 76 76 79 78 71 66 62 59 61 72 80 75 73 71
130 131 127 125 145 135 119 115 111 107 104 103 100 97 93 88 88 94 102 100 100 95 99 89 93 99 86 82 79 82 80 80 77 72 69 73 75 71 72 70 64 68 71 70 68 66 69 72 72 73 71 73 71 70 69 64 64 63 65 66 66 65 63 60 57 71 90 91 85 80 77 75 79 78 78 75 70 67 65 71 75 78 80 78 76
130 127 127 120 122 116 119 121 109 106 106 105 100 98 98 94 93 91 90 96 84 82 80 78 78 77 80 77 80 81 80 78 78 77 78 81 79 82 79 76 74 70 76 71 69 71 70 71 71 72 73 71 72 71 66 63 64 65 66 66 64 61 57 52 49 45 64 104 103 89 82 79 70 79 80 78 77 75 73 76 76 78 79 78 77
127 129 131 137 136 121 124 120 114 111 110 105 101 95 95 98 93 83 76 97 104 98 92 94 89 82 87 88 86 84 82 81 83 84 87 83 84 84 81 81 79 73 69 70 73 72 72 71 72 72 71 72 72 70 70 68 67 69 69 65 61 54 46 39 32 26 43 55 85 85 82 78 77 73 79 78 75 74 77 76 75 74 73 75 76
133 132 142 142 134 130 129 125 118 116 113 110 104 97 91 94 96 93 89 81 75 84 97 97 93 95 94 92 89 87 87 86 88 91 85 89 98 92 82 79 79 80 78 74 69 73 74 74 75 74 74 74 72 74 76 75 72 72 72 66 62 55 45 35 21 9 47 57 68 80 76 80 77 69 72 82 82 77 78 74 73 75 74 76 76
135 139 141 140 139 132 135 127 121 120 115 110 106 101 96 92 97 102 105 90 81 95 92 90 102 107 98 93 92 93 88 88 86 78 85 84 80 77 77 77 73 73 76 78 77 77 77 78 78 79 76 76 76 76 76 75 73 74 77 69 59 50 42 29 21 15 21 84 77 79 83 78 73 73 82 79 76 80 80 78 76 74 72 70 67
138 143 142 139 134 133 134 127 124 120 116 109 107 106 100 94 92 91 84 84 90 80 84 92 97 102 100 96 94 95 98 93 86 84 84 85 88 89 89 86 85 83 81 77 76 75 77 76 78 77 77 77 77 79 80 79 79 79 77 66 57 49 38 14 14 58 56 73 75 79 83 82 86 83 74 79 86 81 77 74 74 72 69 68 70
145 147 144 134 128 128 128 128 126 123 118 114 112 112 107 97 93 97 94 90 92 96 89 93 94 93 100 95 94 94 92 88 86 85 86 89 91 88 84 80 75 73 75 79 78 77 78 78 77 78 80 78 78 78 81 81 82 84 76 65 53 37 21 359 10 79 71 72 73 72 81 86 78 73 69 74 70 70 74 77 75 73 72 71 73
149 145 141 135 134 129 129 135 132 128 124 123 118 116 113 111 105 97 89 89 87 94 94 89 97 108 96 94 91 91 88 87 90 85 87 93 91 89 86 80 77 78 78 79 80 80 80 80 78 79 79 81 79 78 78 81 83 84 75 60 48 37 5 349 56 69 81 74 75 73 68 77 81 78 81 76 76 74 71 72 79 79 80 75 75
150 145 142 130 133 129 138 140 135 133 129 128 127 121 118 116 112 108 100 95 103 105 94 88 94 95 93 93 92 91 93 91 86 89 86 92 91 88 88 84 85 82 79 82 85 83 80 81 83 79 80 80 80 78 77 78 80 80 69 61 53 34 15 354 64 67 72 78 83 87 88 83 81 86 82 82 80 76 70 74 82 86 83 78 77
156 141 140 117 126 133 136 140 142 137 135 134 127 126 121 119 117 116 105 94 96 100 98 100 95 96 95 95 93 92 96 99 100 94 93 88 81 77 80 80 77 76 77 78 76 76 79 80 81 82 78 78 78 76 78 78 79 79 66 56 44 26 12 26 63 70 63 62 62 66 67 73 81 82 82 85 83 82 80 81 80 81 86 83 75
154 147 133 133 140 131 139 145 147 140 140 137 131 126 125 123 122 119 110 99 99 88 94 102 101 93 94 94 92 91 89 94 99 96 95 92 80 86 92 86 78 79 76 69 64 67 71 74 76 82 81 80 80 79 78 79 82 78 64 57 49 42 30 358 74 68 73 77 84 82 82 80 73 75 77 78 82 83 85 90 92 86 85 89 89
156 152 143 147 138 136 134 142 152 142 142 139 134 129 129 126 126 122 116 112 100 96 102 103 104 104 104 100 100 99 101 102 100 98 96 98 97 97 91 90 91 81 74 71 68 73 72 77 81 82 82 77 79 80 80 84 82 69 58 40 24 3 352 70 77 78 80 79 74 80 80 77 79 74 78 78 78 79 83 78 80 85 85 82 81
158 158 149 146 142 151 138 145 154 148 139 138 137 135 134 134 129 127 124 119 113 104 102 101 108 116 114 107 100 99 110 120 112 112 104 87 92 93 88 89 88 84 80 75 74 68 70 74 80 81 83 84 83 84 85 86 78 68 52 31 24 357 352 76 66 76 75 71 71 62 65 74 71 80 83 80 81 83 90 94 90 86 89 97 103
148 166 155 147 151 147 158 149 150 142 142 137 141 138 138 139 138 135 131 128 125 117 108 103 101 105 107 107 108 108 117 122 102 76 91 105 97 91 88 85 85 88 87 87 83 79 77 76 82 88 86 90 94 93 93 88 77 68 48 36 15 14 5 345 81 80 80 87 85 84 76 72 69 69 72 79 82 86 83 86 95 95 94 91 86
153 164 171 157 162 158 161 162 153 142 140 142 141 140 140 136 144 139 136 135 132 125 121 118 111 113 113 111 103 107 108 98 70 61 91 86 72 80 93 99 97 93 90 87 83 83 83 83 83 91 96 93 97 100 94 89 81 71 62 30 23 15 352 330 68 48 42 36 71 74 71 77 77 84 80 82 86 88 90 89 87 90 90 93 96
158 170 179 168 171 165 162 165 156 166 162 151 147 144 139 139 132 130 129 129 134 131 128 122 113 92 89 84 94 106 112 99 65 58 61 66 64 55 95 116 105 96 93 87 85 83 85 87 89 89 97 100 100 100 90 85 83 74 67 48 30 4 357 341 68 72 69 71 62 56 73 70 82 85 83 78 84 90 96 95 94 96 96 96 94
169 186 178 178 175 174 166 162 170 178 168 171 167 152 146 137 132 130 126 129 122 120 107 101 102 104 92 87 88 88 84 75 73 60 61 66 74 81 53 74 96 97 90 92 93 93 90 87 90 92 93 102 104 96 84 78 75 81 57 72 51 342 328 311 67 119 126 60 66 87 92 110 106 91 80 81 83 87 91 95 96 100 102 100 101
176 195 183 186 185 177 175 170 174 183 180 177 170 163 150 143 139 133 132 127 124 110 108 108 106 105 100 107 109 114 122 100 93 93 60 67 37 66 66 99 101 100 97 96 99 100 100 96 94 103 101 108 103 82 78 80 79 67 72 107 212 255 271 72 60 33 68 74 84 95 149 154 89 79 89 90 85 91 98 102 104 99 96 96 95
184 196 189 186 194 186 184 181 180 184 183 181 174 169 148 144 143 139 134 129 122 116 112 111 115 115 128 126 150 159 151 149 166 137 116 62 63 74 72 79 93 96 98 98 102 104 98 102 104 99 114 98 85 74 54 63 70 76 76 242 262 263 40 61 66 67 76 110 111 120 190 125 120 116 100 95 102 109 106 110 111 111 110 113 115
186 189 196 188 191 194 192 190 187 189 186 180 179 168 154 173 173 165 163 143 130 132 148 158 161 152 140 161 187 163 158 164 173 140 144 130 97 85 93 94 94 97 105 113 109 106 105 100 107 116 118 122 140 130 108 63 36 26 14 272 264 288 57 61 34 82 95 90 107 127 145 124 133 120 112 111 112 107 118 115 118 121 116 115 122
187 188 192 194 190 192 194 195 191 191 191 186 178 169 168 185 182 174 167 171 164 178 178 173 185 167 179 189 205 168 169 168 139 108 111 71 95 97 101 103 102 102 93 87 100 108 103 105 108 120 161 242 227 190 141 156 148 294 263 242 244 350 45 45 99 114 111 115 136 146 214 134 121 118 119 108 107 122 131 131 123 117 130 115 100
189 189 186 194 190 192 194 194 194 195 196 196 191 185 179 192 183 181 171 180 169 189 195 178 192 181 185 205 203 148 173 137 92 109 121 135 107 97 101 101 106 111 119 105 88 91 105 108 120 248 223 224 207 187 143 188 159 190 212 236 250 65 274 171 127 141 144 144 134 133 176 161 127 118 119 137 126 140 138 137 136 135 125 143 149
188 186 188 193 193 194 191 192 191 197 199 197 201 199 191 197 191 183 184 189 175 185 199 186 196 187 197 208 184 138 193 151 168 168 184 175 162 166 161 172 167 153 189 150 160 151 208 158 158 212 223 204 219 232 159 181 211 203 235 268 241 199 205 210 191 166 154 158 115 228 210 140 142 140 147 125 137 143 164 148 147 148 151 149 148
187 191 193 189 194 197 191 195 196 197 198 202 201 199 198 202 201 198 190 195 187 188 197 191 196 199 201 208 183 177 200 165 168 174 194 185 173 186 184 195 193 173 204 207 192 170 196 166 181 208 226 201 208 195 241 233 197 214 207 206 251 240 242 204 193 175 182 158 117 139 209 167 170 171 145 167 144 173 167 173 165 157 155 158 148
192 200 192 193 189 197 193 195 196 199 200 203 203 198 203 209 205 202 204 202 195 195 198 195 203 195 206 206 206 195 199 190 174 183 197 187 188 194 192 198 186 192 190 218 180 167 201 186 196 208 221 216 211 216 228 262 295 216 239 187 221 222 230 229 200 199 190 174 133 170 204 185 198 195 175 161 180 184 191 191 184 172 164 162 180
196 193 195 195 188 197 195 197 196 195 198 202 205 204 207 210 211 198 207 208 203 203 202 204 205 204 204 213 211 202 201 204 188 190 194 195 197 198 197 192 194 199 194 212 177 197 199 198 200 207 216 221 219 219 218 220 236 258 240 225 226 228 235 232 217 205 207 195 161 193 241 229 254 171 183 199 210 216 188 208 208 186 173 178 192
201 194 193 199 188 193 199 201 201 200 197 197 206 204 204 211 213 209 210 200 211 210 204 201 209 207 205 221 208 218 208 211 200 199 196 200 196 196 201 201 196 198 193 204 191 203 207 202 199 206 210 221 216 214 228 223 223 226 232 222 228 233 231 230 233 212 210 209 184 185 218 251 245 197 208 225 225 232 180 225 214 213 209 203 202
204 201 196 200 196 190 195 200 203 203 203 201 205 205 203 207 213 214 216 204 213 212 205 207 211 207 211 214 216 223 223 216 208 211 203 200 198 193 204 208 203 201 194 205 198 207 207 205 205 208 212 219 226 223 224 228 229 241 231 236 221 234 232 228 235 227 217 217 212 175 192 225 233 220 229 217 225 239 208 233 215 222 243 206 187
205 205 201 201 198 190 197 200 201 201 204 207 208 210 208 209 208 211 213 215 215 214 209 213 213 215 218 208 218 219 231 221 220 216 217 207 204 196 204 205 208 205 199 205 199 208 209 210 206 211 213 220 224 226 216 241 232 235 236 240 233 232 242 228 236 228 228 222 223 203 181 208 235 249 259 260 243 238 220 239 221 237 227 234 219
210 205 203 199 200 201 198 201 202 198 201 207 208 213 214 214 209 211 213 215 217 216 214 214 210 215 224 210 210 220 228 229 222 219 224 219 213 203 202 204 209 210 205 205 199 199 207 207 207 215 224 225 230 226 217 235 234 231 227 225 236 238 235 232 232 227 231 237 231 218 177 197 219 249 254 264 228 218 222 228 216 235 227 230 223
212 208 202 197 201 201 199 199 201 200 205 209 208 212 215 217 214 212 212 209 218 221 221 216 213 209 221 227 210 220 221 231 224 221 222 226 225 210 203 208 212 213 213 213 201 197 206 206 200 204 215 222 229 230 225 234 241 238 230 223 227 241 255 244 236 238 235 243 242 233 192 187 199 215 245 262 240 223 231 236 211 230 225 230 235
201 205 204 204 199 197 196 197 198 204 206 211 213 207 213 213 211 219 220 216 218 221 224 223 215 212 205 217 221 215 222 226 235 221 220 228 230 223 213 215 212 217 214 203 202 203 207 207 210 204 218 221 226 232 237 235 236 237 230 224 230 235 233 246 249 240 239 235 243 250 251 195 189 198 206 227 245 248 242 239 210 233 234 230 238
198 200 203 202 198 195 191 199 196 202 199 211 216 221 217 213 216 220 217 212 216 219 221 222 221 218 211 208 212 221 221 227 230 232 225 227 228 230 223 234 224 215 210 209 214 217 221 217 210 211 214 220 230 231 233 238 235 230 228 222 219 226 233 235 232 241 243 233 229 238 262 281 234 204 193 202 220 239 247 251 236 232 235 237 235
200 199 199 200 201 196 190 198 194 202 202 207 210 216 223 220 219 214 218 213 218 219 223 223 226 222 220 212 205 210 212 220 228 231 234 232 234 235 228 223 219 200 210 207 204 223 223 222 216 211 218 223 222 227 226 231 233 233 226 230 223 215 219 226 234 240 238 238 239 238 238 263 288 263 230 217 210 214 227 242 249 253 245 231 236
197 197 195 196 202 197 192 198 197 198 203 203 209 211 217 222 221 220 225 224 222 223 226 225 226 225 218 215 206 203 208 216 216 221 236 240 239 231 228 221 207 200 198 207 210 220 223 218 221 213 220 231 225 232 231 227 230 232 227 218 212 198 229 230 240 244 236 237 250 248 245 245 258 296 286 254 238 233 212 224 237 242 234 227 233
195 199 199 197 199 197 195 200 202 199 200 200 201 206 215 217 221 223 212 214 222 229 227 222 226 229 230 225 213 209 207 212 212 215 226 237 239 240 232 219 217 216 227 213 218 218 223 219 220 213 214 228 237 235 232 226 225 207 186 209 222 240 249 244 239 248 256 254 245 249 244 247 238 243 255 261 259 243 240 216 222 229 236 231 227
196 199 201 202 200 201 200 196 201 202 200 201 201 204 215 225 226 228 230 230 226 224 226 229 231 227 225 223 214 209 211 220 211 211 225 228 231 234 232 227 220 223 227 227 217 214 216 213 215 219 219 229 238 247 243 224 186 154 222 223 210 236 244 250 269 254 240 245 253 259 254 244 243 233 236 245 245 253 249 264 225 223 232 232 228
195 196 199 201 201 201 202 200 199 201 200 200 197 202 205 210 214 215 222 222 224 227 230 234 231 230 225 222 213 214 208 207 219 225 229 228 229 228 229 231 239 232 223 221 214 214 213 213 220 226 228 223 224 232 206 198 117 234 251 264 254 254 242 239 239 239 239 237 237 237 242 240 239 236 231 229 239 246 251 252 255 234 231 232 229
194 195 196 199 201 200 195 201 196 196 198 199 200 200 202 205 212 217 221 222 219 215 222 227 233 237 238 236 231 223 212 207 205 213 224 224 225 230 222 212 212 226 226 222 218 217 216 214 216 215 224 219 215 198 202 137 246 268 218 244 253 224 233 228 233 231 231 233 231 236 234 233 230 230 228 227 236 238 247 247 245 249 242 233 227
194 195 198 199 200 201 201 199 193 193 199 200 199 202 204 203 202 209 216 224 227 225 230 230 227 225 230 232 231 232 228 221 212 220 223 219 210 217 218 218 213 217 232 236 231 206 206 212 198 203 188 215 235 196 179 136 226 234 265 275 247 230 219 208 218 228 223 225 226 226 233 230 223 227 226 229 231 230 236 241 244 243 242 247 240
188 193 198 197 198 200 203 199 197 192 197 200 199 200 201 204 207 209 208 218 224 235 238 244 252 252 237 224 222 223 229 227 218 218 237 231 224 223 233 250 232 206 214 230 228 206 202 204 191 198 185 212 238 215 185 183 229 171 88 11 280 291 221 230 228 239 221 217 210 222 221 219 225 219 218 220 232 233 230 228 235 238 240 239 243
189 191 192 195 194 197 198 197 197 197 195 197 200 198 196 197 207 226 225 231 237 242 230 232 237 243 256 267 267 255 242 236 220 212 212 216 217 227 231 223 224 199 213 219 214 214 204 205 205 204 201 223 191 223 195 191 206 122 252 214 312 20 295 266 242 220 207 212 209 222 209 221 225 225 214 219 226 223 227 225 230 234 237 238 238
189 189 186 189 191 194 192 192 192 195 197 192 192 193 185 194 202 211 244 249 251 285 241 239 239 240 240 239 241 244 249 251 245 216 194 212 221 225 224 218 217 216 203 207 212 219 218 212 203 203 198 221 233 222 202 188 201 206 210 112 246 253 233 280 324 277 185 206 220 220 223 224 216 214 212 226 229 224 225 229 230 231 233 232 231
191 191 183 185 182 181 185 184 188 188 191 191 187 187 189 192 192 196 207 217 227 220 221 228 229 231 237 243 241 233 229 241 250 252 241 234 225 219 223 224 216 213 209 212 221 221 214 209 198 210 225 217 227 230 235 185 211 215 226 233 233 265 291 107 43 300 121 213 210 212 224 223 221 221 218 228 220 222 221 231 234 234 234 233 231
195 176 177 184 182 177 177 179 182 183 183 184 184 185 192 197 198 201 208 215 222 225 229 233 241 245 245 242 241 236 235 235 237 242 253 243 233 218 218 218 215 209 202 206 216 226 219 205 195 200 211 207 210 233 235 219 182 233 227 239 253 256 237 272 264 291 288 203 219 243 233 226 225 230 234 231 221 222 228 229 236 239 237 233 234
157 146 165 173 174 169 166 170 175 175 173 176 179 184 189 192 194 199 210 222 221 227 209 216 224 245 253 242 242 248 250 251 255 255 252 227 198 211 210 211 215 216 200 204 213 220 232 227 212 196 195 202 211 220 234 215 203 228 194 229 238 249 256 248 247 256 272 287 273 262 251 252 225 227 232 230 226 222 229 233 236 236 237 235 234
149 169 166 165 165 163 162 166 168 169 164 174 176 183 191 186 189 193 207 218 226 229 233 234 237 231 243 250 251 250 252 260 274 287 294 298 295 281 276 279 273 268 250 245 230 227 227 225 212 195 201 218 211 219 227 227 215 231 183 222 224 235 236 238 254 247 254 268 273 263 273 250 235 240 236 229 233 230 230 235 237 236 237 235 233
129 133 136 145 153 155 157 160 158 164 157 168 175 176 182 183 187 196 204 207 212 225 242 258 247 251 249 247 252 254 254 257 255 257 267 275 274 267 258 259 271 276 258 234 212 213 220 224 218 216 212 207 207 212 222 230 234 238 232 214 206 221 237 249 241 242 251 238 261 268 274 282 272 248 224 237 231 237 237 233 235 236 235 234 229
132 141 139 141 142 144 148 150 149 145 148 155 166 168 176 190 195 196 203 211 208 212 215 229 241 253 248 249 246 249 250 249 252 255 253 254 251 247 247 244 252 252 258 285 280 246 235 235 233 216 208 202 208 216 229 234 233 236 227 225 231 215 221 231 240 224 229 246 254 258 260 256 261 272 251 244 237 234 233 231 233 233 230 228 231